This is the latest recevied weather packets stored in our database for station/object HB9TJM-8. If no packets are shown the sender has not sent any weather packets the latest 10 day(s).
| Time | Temp. | Humidity | Pressure | Rain* | Wind** | Luminosity | Snow |
|---|---|---|---|---|---|---|---|
| 1777543411 | 11.11° C | 58% | 1021 hPa | 0 mm | - | 759 W/m² | - |
| 1777542489 | 10.56° C | 58% | 1020.8 hPa | 0 mm | - | 746 W/m² | - |
| 1777542182 | 11.11° C | 56% | 1021 hPa | 0 mm | - | 743 W/m² | - |
| 1777541874 | 10.56° C | 57% | 1021.1 hPa | 0 mm | - | 731 W/m² | - |
| 1777541260 | 10.56° C | 55% | 1021.2 hPa | 0 mm | - | 712 W/m² | - |
| 1777541260 | 10.56° C | 55% | 1021.2 hPa | 0 mm | - | 712 W/m² | - |
| 1777540952 | 10.56° C | 59% | 1021.1 hPa | 0 mm | - | 707 W/m² | - |
| 1777540645 | 10° C | 57% | 1021 hPa | 0 mm | - | 701 W/m² | - |
| 1777540338 | 10.56° C | 57% | 1021.1 hPa | 0 mm | - | 683 W/m² | - |
| 1777540338 | 10.56° C | 57% | 1021.1 hPa | 0 mm | - | 683 W/m² | - |
| 1777540030 | 10° C | 57% | 1021.3 hPa | 0 mm | - | 674 W/m² | - |
| 1777539722 | 10° C | 56% | 1021.1 hPa | 0 mm | - | 661 W/m² | - |
| 1777538184 | 8.89° C | 56% | 1021.1 hPa | 0 mm | - | 609 W/m² | - |
| 1777537877 | 8.33° C | 59% | 1020.9 hPa | 0 mm | - | 602 W/m² | - |
| 1777537570 | 8.89° C | 58% | 1020.8 hPa | 0 mm | - | 589 W/m² | - |
| 1777537263 | 8.89° C | 58% | 1020.8 hPa | 0 mm | - | 577 W/m² | - |
| 1777537262 | 8.89° C | 58% | 1020.8 hPa | 0 mm | - | 577 W/m² | - |
| 1777536955 | 8.33° C | 57% | 1020.7 hPa | 0 mm | - | 559 W/m² | - |
| 1777536955 | 8.33° C | 57% | 1020.7 hPa | 0 mm | - | 559 W/m² | - |
| 1777536648 | 8.89° C | 57% | 1020.9 hPa | 0 mm | - | 544 W/m² | - |
| 1777536647 | 8.89° C | 57% | 1020.9 hPa | 0 mm | - | 544 W/m² | - |
| 1777536340 | 8.89° C | 60% | 1021.1 hPa | 0 mm | - | 534 W/m² | - |
| 1777535726 | 8.33° C | 59% | 1020.9 hPa | 0 mm | - | 505 W/m² | - |
| 1777535111 | 8.33° C | 58% | 1021 hPa | 0 mm | - | 285 W/m² | - |
| 1777534804 | 8.33° C | 58% | 1021 hPa | 0 mm | - | 470 W/m² | - |
* Rain latest hour (hover to see other rain measurements)
** Current wind speed in m/s (hover to see current wind gust speed)